Torna al catalogo

FENGYUN 1C DEB

AttivoSSO
NORAD 30542·DEBRIS·🇨🇳 China

Lanciato May 10, 1999 da Taiyuan Satellite Launch Center

Loading…

Prossimi Passaggi (prossime 24 ore)

TLE

AggiornatoSource: Space-Track

Epoca: Sep 14, 2026, 20:17 UTC

1 30542U 99025AKG 26257.84547586  .00000072  00000-0  68580-4 0  9998
2 30542  98.7618 283.4239 0026846 275.4804 265.9026 14.07096122  7865

Traccia FENGYUN 1C DEB in tempo reale con AllMySat

Download on the App Store